Hourly Weather Barra de Santiago

Today, 18 April, Sunday

Time Temperature Precipitation Wind Pressure Humidity
00:00 +29°C° 0 mm 1 mps 758 mmHg 79%
01:00 +29°C° 0 mm 1 mps 758 mmHg 79%
02:00 +28°C° 0 mm 2 mps 757 mmHg 80%
03:00 +28°C° 0 mm 2 mps 757 mmHg 81%
04:00 +28°C° 0 mm 2 mps 757 mmHg 79%
05:00 +28°C° 0 mm 2 mps 757 mmHg 78%
06:00 +28°C° 0 mm 2 mps 758 mmHg 77%
07:00 +30°C° 0 mm 2 mps 758 mmHg 68%
08:00 +32°C° 0 mm 1 mps 758 mmHg 59%
09:00 +34°C° 0 mm 1 mps 759 mmHg 50%
10:00 +35°C° 0 mm 2 mps 758 mmHg 49%
11:00 +36°C° 0 mm 3 mps 758 mmHg 49%
12:00 +36°C° 0 mm 4 mps 758 mmHg 48%
13:00 +36°C° 0 mm 3 mps 757 mmHg 49%
14:00 +36°C° 0 mm 3 mps 756 mmHg 50%
15:00 +36°C° 0 mm 3 mps 756 mmHg 51%
16:00 +34°C° 0 mm 3 mps 756 mmHg 56%
17:00 +32°C° 0 mm 2 mps 756 mmHg 60%
18:00 +31°C° 0 mm 2 mps 757 mmHg 65%
19:00 +31°C° 0 mm 2 mps 757 mmHg 69%
20:00 +30°C° 0 mm 2 mps 758 mmHg 73%
21:00 +30°C° 0 mm 1 mps 758 mmHg 76%
22:00 +29°C° 0.1 mm 1 mps 758 mmHg 77%
23:00 +29°C° 0.1 mm 1 mps 758 mmHg 79%

Tomorrow, 19 April, Monday

Time Temperature Precipitation Wind Pressure Humidity
00:00 +29°C° 0.1 mm 1 mps 758 mmHg 80%
01:00 +29°C° 0.1 mm 1 mps 758 mmHg 80%
02:00 +28°C° 0.1 mm 1 mps 757 mmHg 80%
03:00 +28°C° 0.1 mm 1 mps 757 mmHg 80%
04:00 +28°C° 1 mm 1 mps 757 mmHg 82%
05:00 +28°C° 1 mm 1 mps 757 mmHg 83%
06:00 +27°C° 1 mm 1 mps 758 mmHg 85%
07:00 +28°C° 2 mm 2 mps 758 mmHg 83%
08:00 +28°C° 2 mm 2 mps 759 mmHg 81%
09:00 +29°C° 2 mm 3 mps 759 mmHg 79%
10:00 +29°C° 0.6 mm 2 mps 759 mmHg 77%
11:00 +29°C° 0.6 mm 2 mps 758 mmHg 75%
12:00 +29°C° 0.6 mm 1 mps 758 mmHg 74%
13:00 +30°C° 0 mm 1 mps 757 mmHg 68%
14:00 +31°C° 0 mm 1 mps 757 mmHg 63%
15:00 +32°C° 0 mm 1 mps 756 mmHg 57%
16:00 +31°C° 0 mm 1 mps 756 mmHg 60%
17:00 +31°C° 0 mm 1 mps 756 mmHg 64%
18:00 +30°C° 0 mm 1 mps 756 mmHg 67%
19:00 +30°C° 0 mm 1 mps 757 mmHg 70%
20:00 +29°C° 0 mm 1 mps 758 mmHg 73%
21:00 +26°C° 0 mm 0 mps 758 mmHg 77%
22:00 +28°C° 0.1 mm 1 mps 758 mmHg 77%
23:00 +28°C° 0.1 mm 1 mps 758 mmHg 78%

Day after tomorrow, 20 April, Tuesday

Time Temperature Precipitation Wind Pressure Humidity
00:00 +28°C° 0.1 mm 1 mps 758 mmHg 79%
01:00 +27°C° 0.4 mm 1 mps 758 mmHg 79%
02:00 +27°C° 0.4 mm 2 mps 758 mmHg 79%
03:00 +27°C° 0.4 mm 2 mps 757 mmHg 79%
04:00 +27°C° 0.2 mm 2 mps 758 mmHg 79%
05:00 +27°C° 0.2 mm 1 mps 758 mmHg 78%
06:00 +27°C° 0.2 mm 1 mps 758 mmHg 77%
07:00 +29°C° 0 mm 1 mps 758 mmHg 70%
08:00 +31°C° 0 mm 1 mps 759 mmHg 62%
09:00 +33°C° 0 mm 1 mps 759 mmHg 55%
10:00 +34°C° 0.1 mm 2 mps 759 mmHg 54%
11:00 +35°C° 0.1 mm 3 mps 758 mmHg 54%
12:00 +36°C° 0.1 mm 4 mps 758 mmHg 53%
13:00 +35°C° 0.5 mm 4 mps 758 mmHg 57%
14:00 +34°C° 0.5 mm 4 mps 757 mmHg 61%
15:00 +33°C° 0.5 mm 4 mps 757 mmHg 65%
16:00 +33°C° 0.2 mm 4 mps 757 mmHg 69%
17:00 +31°C° 0.2 mm 3 mps 757 mmHg 72%
18:00 +30°C° 0.2 mm 3 mps 757 mmHg 75%
19:00 +30°C° 0.3 mm 2 mps 758 mmHg 77%
20:00 +30°C° 0.3 mm 1 mps 758 mmHg 79%
21:00 +29°C° 0.3 mm 1 mps 759 mmHg 81%
22:00 +29°C° 2.4 mm 1 mps 759 mmHg 84%
23:00 +28°C° 2.4 mm 2 mps 759 mmHg 87%

21 April, Wednesday

Time Temperature Precipitation Wind Pressure Humidity
00:00 +28°C° 2.4 mm 2 mps 759 mmHg 90%
01:00 +28°C° 0.3 mm 2 mps 759 mmHg 89%
02:00 +28°C° 0.3 mm 2 mps 758 mmHg 87%
03:00 +28°C° 0.3 mm 2 mps 758 mmHg 86%
04:00 +28°C° 0.1 mm 2 mps 758 mmHg 85%
05:00 +28°C° 0.1 mm 3 mps 759 mmHg 85%
06:00 +28°C° 0.1 mm 3 mps 759 mmHg 84%
07:00 +29°C° 0.1 mm 3 mps 759 mmHg 79%
08:00 +30°C° 0.1 mm 3 mps 760 mmHg 73%
09:00 +32°C° 0.1 mm 4 mps 760 mmHg 67%
10:00 +33°C° 0.1 mm 3 mps 759 mmHg 64%
11:00 +34°C° 0.1 mm 3 mps 759 mmHg 61%
12:00 +35°C° 0.1 mm 3 mps 759 mmHg 58%
13:00 +34°C° 0.7 mm 3 mps 758 mmHg 61%
14:00 +32°C° 0.7 mm 2 mps 757 mmHg 65%
15:00 +32°C° 0.7 mm 2 mps 757 mmHg 68%
16:00 +31°C° 1.3 mm 1 mps 757 mmHg 74%
17:00 +29°C° 1.3 mm 1 mps 757 mmHg 80%
18:00 +28°C° 1.3 mm 1 mps 757 mmHg 86%
19:00 +28°C° 0.4 mm 1 mps 758 mmHg 86%
20:00 +28°C° 0.4 mm 1 mps 758 mmHg 85%
21:00 +28°C° 0.4 mm 1 mps 758 mmHg 85%
22:00 +28°C° 0.4 mm 1 mps 758 mmHg 84%
23:00 +26°C° 0.4 mm 0 mps 758 mmHg 84%

22 April, Thursday

Time Temperature Precipitation Wind Pressure Humidity
00:00 +26°C° 0.4 mm 0 mps 758 mmHg 84%
01:00 +28°C° 0.2 mm 1 mps 758 mmHg 84%
02:00 +28°C° 0.2 mm 1 mps 757 mmHg 84%
03:00 +28°C° 0.2 mm 1 mps 757 mmHg 85%
04:00 +28°C° 0.1 mm 1 mps 757 mmHg 84%
05:00 +28°C° 0.1 mm 1 mps 758 mmHg 83%
06:00 +28°C° 0.1 mm 1 mps 758 mmHg 83%
07:00 +29°C° 0.3 mm 1 mps 758 mmHg 75%
08:00 +31°C° 0.3 mm 2 mps 758 mmHg 66%
09:00 +34°C° 0.3 mm 2 mps 759 mmHg 58%
10:00 +34°C° 0 mm 3 mps 758 mmHg 57%
11:00 +35°C° 0 mm 3 mps 758 mmHg 56%
12:00 +36°C° 0 mm 4 mps 758 mmHg 54%
13:00 +35°C° 0.4 mm 4 mps 757 mmHg 58%
14:00 +34°C° 0.4 mm 4 mps 757 mmHg 63%
15:00 +33°C° 0.4 mm 4 mps 756 mmHg 67%
16:00 +31°C° 0.3 mm 3 mps 756 mmHg 70%
17:00 +31°C° 0.3 mm 2 mps 757 mmHg 74%
18:00 +30°C° 0.3 mm 2 mps 757 mmHg 78%
19:00 +30°C° 0.2 mm 1 mps 757 mmHg 80%
20:00 +29°C° 0.2 mm 1 mps 758 mmHg 82%
21:00 +29°C° 0.2 mm 1 mps 758 mmHg 84%
22:00 +29°C° 1.2 mm 1 mps 758 mmHg 83%
23:00 +29°C° 1.2 mm 1 mps 758 mmHg 82%

23 April, Friday

Time Temperature Precipitation Wind Pressure Humidity
00:00 +29°C° 1.2 mm 1 mps 758 mmHg 81%
01:00 +29°C° 0.5 mm 1 mps 758 mmHg 79%
02:00 +29°C° 0.5 mm 1 mps 757 mmHg 78%
03:00 +29°C° 0.5 mm 1 mps 757 mmHg 76%
04:00 +28°C° 0.1 mm 1 mps 757 mmHg 77%
05:00 +28°C° 0.1 mm 1 mps 758 mmHg 78%
06:00 +27°C° 0.1 mm 2 mps 758 mmHg 79%
07:00 +29°C° 0 mm 1 mps 758 mmHg 71%
08:00 +31°C° 0 mm 1 mps 759 mmHg 64%
09:00 +33°C° 0 mm 1 mps 759 mmHg 56%
10:00 +35°C° 0 mm 2 mps 758 mmHg 54%
11:00 +35°C° 0 mm 3 mps 758 mmHg 52%
12:00 +36°C° 0 mm 4 mps 758 mmHg 50%
13:00 +36°C° 0 mm 4 mps 757 mmHg 52%
14:00 +35°C° 0 mm 4 mps 757 mmHg 54%
15:00 +35°C° 0 mm 4 mps 756 mmHg 57%
16:00 +34°C° 0 mm 3 mps 757 mmHg 61%
17:00 +32°C° 0 mm 2 mps 757 mmHg 64%
18:00 +31°C° 0 mm 1 mps 757 mmHg 68%
19:00 +30°C° 0 mm 1 mps 758 mmHg 71%
20:00 +30°C° 0 mm 1 mps 758 mmHg 73%
21:00 +29°C° 0 mm 2 mps 758 mmHg 75%
22:00 +29°C° 0 mm 1 mps 758 mmHg 76%
23:00 +28°C° 0 mm 1 mps 758 mmHg 77%
Show more